| time (UTC) | temp F | wind direction | speed knots | gust knots | rain 1hr in | rain 24hr in | rain mn in | humidity % | barometer mb |
| 20260508143037 | 82 | 271 | 4.3 | 7.8 | 0.00 | 0.00 | 0.00 | 74 | 1015.0 |
| 20260508142520 | 83 | 258 | 3.5 | 8.7 | 0.00 | 0.00 | 0.00 | 75 | 1014.9 |
| 20260508142017 | 81 | 261 | 3.5 | 8.7 | 0.00 | 0.00 | 0.00 | 78 | 1014.9 |
| 20260508141546 | 81 | 259 | 5.2 | 8.7 | 0.00 | 0.00 | 0.00 | 77 | 1015.0 |
| 20260508141017 | 81 | 277 | 5.2 | 8.7 | 0.00 | 0.00 | 0.00 | 78 | 1015.0 |
| 20260508140516 | 82 | 277 | 1.7 | 7.0 | 0.00 | 0.00 | 0.00 | 79 | 1015.0 |
| 20260508140052 | 81 | 274 | 0.9 | 13.0 | 0.00 | 0.00 | 0.00 | 80 | 1014.9 |
| 20260508135524 | 81 | 277 | 4.3 | 13.0 | 0.00 | 0.00 | 0.00 | 80 | 1014.9 |
| 20260508135018 | 81 | 256 | 2.6 | 7.0 | 0.00 | 0.00 | 0.00 | 82 | 1014.9 |
| 20260508134538 | 80 | 317 | 2.6 | 7.0 | 0.00 | 0.00 | 0.00 | 83 | 1015.0 |
| 20260508134017 | 79 | 263 | 3.5 | 11.3 | 0.00 | 0.00 | 0.00 | 84 | 1015.0 |
| 20260508133517 | 79 | 282 | 4.3 | 11.3 | 0.00 | 0.00 | 0.00 | 84 | 1015.1 |
| 20260508133111 | 78 | 278 | 2.6 | 10.4 | 0.00 | 0.00 | 0.00 | 86 | 1015.2 |
| 20260508132520 | 78 | 295 | 1.7 | 5.2 | 0.00 | 0.00 | 0.00 | 87 | 1015.2 |
| 20260508132017 | 78 | 279 | 2.6 | 6.1 | 0.00 | 0.00 | 0.00 | 88 | 1015.1 |
| 20260508131538 | 77 | 247 | 2.6 | 6.1 | 0.00 | 0.00 | 0.00 | 89 | 1015.1 |
| 20260508131018 | 77 | 304 | 1.7 | 5.2 | 0.00 | 0.00 | 0.00 | 89 | 1015.2 |
| 20260508130517 | 77 | 270 | 0.9 | 2.6 | 0.00 | 0.00 | 0.00 | 90 | 1015.1 |
| 20260508130035 | 76 | 270 | 0.0 | 2.6 | 0.00 | 0.00 | 0.00 | 91 | 1015.0 |
| 20260508125517 | 76 | 270 | 0.0 | 2.6 | 0.00 | 0.00 | 0.00 | 91 | 1015.0 |
| 20260508125017 | 76 | 271 | 0.9 | 2.6 | 0.00 | 0.00 | 0.00 | 91 | 1015.0 |
| 20260508124531 | 76 | 244 | 0.0 | 2.6 | 0.00 | 0.00 | 0.00 | 92 | 1015.1 |
| 20260508124017 | 75 | 0 | 0.0 | 2.6 | 0.00 | 0.00 | 0.00 | 93 | 1015.0 |
| 20260508123517 | 75 | 254 | 0.9 | 2.6 | 0.00 | 0.00 | 0.00 | 93 | 1015.0 |
| 20260508123039 | 74 | 264 | 0.9 | 1.7 | 0.00 | 0.00 | 0.00 | 93 | 1014.9 |
| 20260508122516 | 74 | 0 | 0.0 | 0.9 | 0.00 | 0.00 | 0.00 | 94 | 1014.9 |
| 20260508122017 | 74 | 0 | 0.0 | 1.7 | 0.00 | 0.00 | 0.00 | 94 | 1014.7 |
| 20260508121540 | 73 | 0 | 0.0 | 1.7 | 0.00 | 0.00 | 0.00 | 94 | 1014.8 |
| 20260508121018 | 73 | 0 | 0.0 | 0.9 | 0.00 | 0.00 | 0.00 | 95 | 1014.7 |
| 20260508120517 | 73 | 0 | 0.0 | 0.9 | 0.00 | 0.00 | 0.00 | 95 | 1014.6 |
| 20260508120042 | 73 | 0 | 0.0 | 0.9 | 0.00 | 0.00 | 0.00 | 95 | 1014.4 |
| 20260508115518 | 72 | 0 | 0.0 | 2.6 | 0.00 | 0.00 | 0.00 | 95 | 1014.5 |
| 20260508115018 | 72 | 0 | 0.0 | 2.6 | 0.00 | 0.00 | 0.00 | 95 | 1014.4 |
| 20260508114537 | 72 | 265 | 0.0 | 1.7 | 0.00 | 0.00 | 0.00 | 95 | 1014.3 |
| 20260508114018 | 71 | 0 | 0.0 | 0.9 | 0.00 | 0.00 | 0.00 | 95 | 1014.4 |
| 20260508113520 | 71 | 0 | 0.0 | 1.7 | 0.00 | 0.00 | 0.00 | 95 | 1014.2 |
| 20260508113035 | 71 | 0 | 0.0 | 1.7 | 0.00 | 0.00 | 0.00 | 95 | 1014.0 |
| 20260508112516 | 71 | 0 | 0.0 | 0.0 | 0.00 | 0.00 | 0.00 | 96 | 1013.9 |
| 20260508112017 | 70 | 0 | 0.0 | 0.0 | 0.00 | 0.00 | 0.00 | 95 | 1013.8 |
| 20260508111552 | 70 | 0 | 0.0 | 0.0 | 0.00 | 0.00 | 0.00 | 95 | 1013.7 |
| 20260508111017 | 70 | 0 | 0.0 | 0.0 | 0.00 | 0.00 | 0.00 | 96 | 1013.7 |
| 20260508110522 | 70 | 0 | 0.0 | 0.0 | 0.00 | 0.00 | 0.00 | 95 | 1013.8 |
| 20260508110056 | 70 | 0 | 0.0 | 0.0 | 0.00 | 0.00 | 0.00 | 95 | 1013.6 |
| 20260508105517 | 70 | 0 | 0.0 | 0.0 | 0.00 | 0.00 | 0.00 | 95 | 1013.5 |
| 20260508105017 | 69 | 0 | 0.0 | 0.0 | 0.00 | 0.00 | 0.00 | 96 | 1013.5 |
| 20260508104538 | 69 | 0 | 0.0 | 0.0 | 0.00 | 0.00 | 0.00 | 95 | 1013.4 |
| 20260508104017 | 69 | 0 | 0.0 | 0.0 | 0.00 | 0.00 | 0.00 | 95 | 1013.4 |
| 20260508103516 | 69 | 0 | 0.0 | 0.0 | 0.00 | 0.00 | 0.00 | 95 | 1013.4 |
| 20260508103050 | 69 | 0 | 0.0 | 0.0 | 0.00 | 0.00 | 0.00 | 95 | 1013.1 |
| 20260508102517 | 69 | 0 | 0.0 | 0.0 | 0.00 | 0.00 | 0.00 | 95 | 1013.0 |
| 20260508102017 | 69 | 0 | 0.0 | 0.0 | 0.00 | 0.00 | 0.00 | 95 | 1012.9 |
| 20260508101541 | 69 | 0 | 0.0 | 0.0 | 0.00 | 0.00 | 0.00 | 95 | 1013.0 |
| 20260508101020 | 69 | 0 | 0.0 | 0.0 | 0.00 | 0.00 | 0.00 | 95 | 1012.8 |
| 20260508100517 | 69 | 0 | 0.0 | 0.0 | 0.00 | 0.00 | 0.00 | 95 | 1012.7 |
| 20260508100035 | 69 | 0 | 0.0 | 0.0 | 0.00 | 0.00 | 0.00 | 95 | 1012.8 |
| 20260508095517 | 69 | 0 | 0.0 | 0.0 | 0.00 | 0.00 | 0.00 | 95 | 1012.8 |
| 20260508095016 | 69 | 0 | 0.0 | 0.0 | 0.00 | 0.00 | 0.00 | 95 | 1012.7 |
| 20260508094539 | 69 | 0 | 0.0 | 0.0 | 0.00 | 0.00 | 0.00 | 95 | 1012.7 |
| 20260508094018 | 69 | 0 | 0.0 | 0.0 | 0.00 | 0.00 | 0.00 | 95 | 1012.7 |
| 20260508093517 | 69 | 0 | 0.0 | 0.0 | 0.00 | 0.00 | 0.00 | 95 | 1012.7 |
| 20260508093041 | 69 | 0 | 0.0 | 0.0 | 0.00 | 0.00 | 0.00 | 95 | 1012.6 |
| 20260508092516 | 69 | 0 | 0.0 | 0.0 | 0.00 | 0.00 | 0.00 | 95 | 1012.6 |
| 20260508092016 | 69 | 0 | 0.0 | 0.0 | 0.00 | 0.00 | 0.00 | 95 | 1012.6 |
| 20260508091540 | 69 | 0 | 0.0 | 0.0 | 0.00 | 0.00 | 0.00 | 95 | 1012.7 |
| 20260508091016 | 69 | 0 | 0.0 | 0.0 | 0.00 | 0.00 | 0.00 | 95 | 1012.6 |
| 20260508090518 | 69 | 0 | 0.0 | 0.0 | 0.00 | 0.00 | 0.00 | 95 | 1012.6 |
| 20260508090039 | 69 | 0 | 0.0 | 0.0 | 0.00 | 0.00 | 0.00 | 95 | 1012.6 |
| 20260508085517 | 69 | 0 | 0.0 | 0.0 | 0.00 | 0.00 | 0.00 | 95 | 1012.7 |
| 20260508085017 | 69 | 0 | 0.0 | 0.0 | 0.00 | 0.00 | 0.00 | 95 | 1012.6 |
| 20260508084535 | 70 | 0 | 0.0 | 0.0 | 0.00 | 0.00 | 0.00 | 95 | 1012.7 |
| 20260508084020 | 69 | 0 | 0.0 | 0.0 | 0.00 | 0.00 | 0.00 | 95 | 1012.7 |
| 20260508083518 | 70 | 0 | 0.0 | 0.0 | 0.00 | 0.00 | 0.00 | 95 | 1012.7 |
| 20260508083037 | 70 | 0 | 0.0 | 0.0 | 0.00 | 0.00 | 0.00 | 95 | 1012.7 |
| 20260508082518 | 70 | 0 | 0.0 | 0.0 | 0.00 | 0.00 | 0.00 | 95 | 1012.7 |
| 20260508082017 | 69 | 0 | 0.0 | 0.0 | 0.00 | 0.00 | 0.00 | 95 | 1012.8 |
| 20260508081543 | 69 | 0 | 0.0 | 0.0 | 0.00 | 0.00 | 0.00 | 95 | 1012.7 |
| 20260508081016 | 69 | 0 | 0.0 | 0.0 | 0.00 | 0.00 | 0.00 | 95 | 1012.6 |
| 20260508080516 | 70 | 0 | 0.0 | 0.0 | 0.00 | 0.00 | 0.00 | 95 | 1012.7 |
| 20260508080040 | 69 | 0 | 0.0 | 0.0 | 0.00 | 0.00 | 0.00 | 95 | 1012.7 |
| 20260508075517 | 69 | 0 | 0.0 | 0.0 | 0.00 | 0.00 | 0.00 | 95 | 1012.6 |
| 20260508075016 | 69 | 0 | 0.0 | 0.0 | 0.00 | 0.00 | 0.00 | 95 | 1012.7 |
| 20260508074539 | 69 | 0 | 0.0 | 0.0 | 0.00 | 0.00 | 0.00 | 95 | 1012.7 |
| 20260508074016 | 69 | 0 | 0.0 | 0.0 | 0.00 | 0.00 | 0.00 | 94 | 1012.7 |
| 20260508073516 | 69 | 0 | 0.0 | 0.0 | 0.00 | 0.00 | 0.00 | 95 | 1012.7 |
| 20260508073038 | 69 | 0 | 0.0 | 0.0 | 0.00 | 0.00 | 0.00 | 94 | 1012.9 |
| 20260508072516 | 69 | 0 | 0.0 | 0.0 | 0.00 | 0.00 | 0.00 | 94 | 1012.7 |
| 20260508072016 | 70 | 0 | 0.0 | 0.0 | 0.00 | 0.00 | 0.00 | 94 | 1012.8 |
| 20260508071536 | 69 | 0 | 0.0 | 0.0 | 0.00 | 0.00 | 0.00 | 94 | 1012.8 |
| 20260508071022 | 69 | 0 | 0.0 | 0.0 | 0.00 | 0.00 | 0.00 | 94 | 1012.9 |
| 20260508070517 | 69 | 0 | 0.0 | 0.0 | 0.00 | 0.00 | 0.00 | 94 | 1012.9 |
| 20260508070036 | 68 | 0 | 0.0 | 0.0 | 0.00 | 0.00 | 0.00 | 94 | 1012.8 |
| 20260508065516 | 68 | 0 | 0.0 | 0.0 | 0.00 | 0.00 | 0.00 | 93 | 1012.9 |
| 20260508065016 | 68 | 0 | 0.0 | 0.0 | 0.00 | 0.00 | 0.00 | 93 | 1012.9 |
| 20260508064551 | 69 | 0 | 0.0 | 0.0 | 0.00 | 0.00 | 0.00 | 94 | 1013.0 |
| 20260508064017 | 70 | 0 | 0.0 | 0.0 | 0.00 | 0.00 | 0.00 | 94 | 1013.1 |
| 20260508063517 | 70 | 0 | 0.0 | 0.0 | 0.00 | 0.00 | 0.00 | 94 | 1013.1 |
| 20260508063041 | 69 | 0 | 0.0 | 0.0 | 0.00 | 0.00 | 0.00 | 94 | 1013.1 |
| 20260508062516 | 69 | 0 | 0.0 | 0.0 | 0.00 | 0.00 | 0.00 | 93 | 1013.3 |
| 20260508062016 | 69 | 0 | 0.0 | 0.0 | 0.00 | 0.00 | 0.00 | 93 | 1013.2 |
| 20260508061537 | 69 | 0 | 0.0 | 0.0 | 0.00 | 0.00 | 0.00 | 93 | 1013.3 |
| 20260508061023 | 69 | 0 | 0.0 | 0.0 | 0.00 | 0.00 | 0.00 | 93 | 1013.4 |
| 20260508060517 | 69 | 0 | 0.0 | 0.0 | 0.00 | 0.00 | 0.00 | 93 | 1013.4 |
| 20260508060038 | 70 | 0 | 0.0 | 0.0 | 0.00 | 0.00 | 0.00 | 93 | 1013.4 |
| 20260508055516 | 70 | 0 | 0.0 | 0.0 | 0.00 | 0.00 | 0.00 | 93 | 1013.4 |
| 20260508055020 | 70 | 0 | 0.0 | 0.0 | 0.00 | 0.00 | 0.00 | 93 | 1013.5 |
| 20260508054537 | 70 | 0 | 0.0 | 0.0 | 0.00 | 0.00 | 0.00 | 93 | 1013.5 |
| 20260508054021 | 70 | 0 | 0.0 | 0.0 | 0.00 | 0.00 | 0.00 | 93 | 1013.5 |
| 20260508053520 | 71 | 0 | 0.0 | 0.0 | 0.00 | 0.00 | 0.00 | 93 | 1013.5 |
| 20260508053036 | 71 | 0 | 0.0 | 0.0 | 0.00 | 0.00 | 0.00 | 92 | 1013.6 |
| 20260508052520 | 71 | 0 | 0.0 | 0.0 | 0.00 | 0.00 | 0.00 | 92 | 1013.6 |
| 20260508052016 | 71 | 0 | 0.0 | 0.0 | 0.00 | 0.00 | 0.00 | 92 | 1013.5 |
| 20260508051535 | 71 | 0 | 0.0 | 0.0 | 0.00 | 0.00 | 0.00 | 92 | 1013.6 |
| 20260508051020 | 71 | 0 | 0.0 | 0.0 | 0.00 | 0.00 | 0.00 | 92 | 1013.5 |
| 20260508050517 | 71 | 0 | 0.0 | 0.0 | 0.00 | 0.00 | 0.00 | 92 | 1013.6 |
| 20260508050039 | 71 | 0 | 0.0 | 0.0 | 0.00 | 0.00 | 0.00 | 92 | 1013.6 |
| 20260508045516 | 71 | 0 | 0.0 | 0.0 | 0.00 | 0.00 | 0.00 | 92 | 1013.6 |
| 20260508045016 | 71 | 0 | 0.0 | 0.0 | 0.00 | 0.00 | 0.00 | 92 | 1013.7 |
| 20260508044538 | 71 | 0 | 0.0 | 0.0 | 0.00 | 0.00 | 0.00 | 92 | 1013.6 |
| 20260508044017 | 71 | 0 | 0.0 | 0.0 | 0.00 | 0.00 | 0.00 | 91 | 1013.7 |
| 20260508043516 | 71 | 0 | 0.0 | 0.0 | 0.00 | 0.00 | 0.00 | 91 | 1013.9 |
| 20260508043041 | 71 | 0 | 0.0 | 0.0 | 0.00 | 0.00 | 0.00 | 91 | 1013.8 |
| 20260508042516 | 71 | 0 | 0.0 | 0.0 | 0.00 | 0.00 | 0.00 | 91 | 1013.8 |
| 20260508042016 | 71 | 0 | 0.0 | 1.7 | 0.00 | 0.00 | 0.00 | 91 | 1013.9 |
| 20260508041537 | 71 | 0 | 0.0 | 1.7 | 0.00 | 0.00 | 0.00 | 90 | 1013.8 |
| 20260508041020 | 71 | 265 | 0.9 | 1.7 | 0.00 | 0.00 | 0.00 | 90 | 1013.8 |
| 20260508040521 | 71 | 0 | 0.0 | 0.0 | 0.00 | 0.00 | 0.00 | 90 | 1013.8 |
| 20260508040040 | 72 | 0 | 0.0 | 1.7 | 0.00 | 0.00 | 0.00 | 90 | 1013.8 |
| 20260508035521 | 72 | 0 | 0.0 | 1.7 | 0.00 | 0.00 | 0.00 | 90 | 1013.8 |
| 20260508035021 | 72 | 0 | 0.9 | 1.7 | 0.00 | 0.00 | 0.00 | 90 | 1013.9 |
| 20260508034534 | 72 | 265 | 0.9 | 1.7 | 0.00 | 0.00 | 0.00 | 89 | 1013.8 |
| 20260508034019 | 72 | 0 | 0.0 | 3.5 | 0.00 | 0.00 | 0.00 | 89 | 1013.9 |
| 20260508033516 | 72 | 265 | 0.9 | 3.5 | 0.00 | 0.00 | 0.00 | 89 | 1013.9 |
| 20260508033041 | 72 | 252 | 0.9 | 3.5 | 0.00 | 0.00 | 0.00 | 89 | 1013.8 |
| 20260508032522 | 72 | 267 | 1.7 | 3.5 | 0.00 | 0.00 | 0.00 | 89 | 1013.9 |
| 20260508032017 | 72 | 270 | 1.7 | 2.6 | 0.00 | 0.00 | 0.00 | 88 | 1013.8 |
| 20260508031538 | 72 | 270 | 1.7 | 2.6 | 0.00 | 0.00 | 0.00 | 88 | 1013.7 |
| 20260508031020 | 73 | 273 | 0.9 | 2.6 | 0.00 | 0.00 | 0.00 | 87 | 1013.6 |
| 20260508030516 | 73 | 273 | 1.7 | 3.5 | 0.00 | 0.00 | 0.00 | 87 | 1013.6 |
| 20260508030039 | 73 | 263 | 0.9 | 3.5 | 0.00 | 0.00 | 0.00 | 87 | 1013.7 |
| 20260508025521 | 73 | 246 | 0.9 | 3.5 | 0.00 | 0.00 | 0.00 | 87 | 1013.7 |
| 20260508025019 | 73 | 257 | 2.6 | 3.5 | 0.00 | 0.00 | 0.00 | 87 | 1013.6 |
| 20260508024544 | 73 | 273 | 2.6 | 3.5 | 0.00 | 0.00 | 0.00 | 86 | 1013.6 |
| 20260508024024 | 73 | 269 | 1.7 | 5.2 | 0.00 | 0.00 | 0.00 | 85 | 1013.6 |
| 20260508023520 | 73 | 261 | 2.6 | 5.2 | 0.00 | 0.00 | 0.00 | 85 | 1013.5 |
| 20260508023039 | 74 | 259 | 2.6 | 5.2 | 0.00 | 0.00 | 0.00 | 84 | 1013.5 |
| 20260508022517 | 74 | 267 | 2.6 | 5.2 | 0.00 | 0.00 | 0.00 | 84 | 1013.6 |
| 20260508022019 | 74 | 269 | 2.6 | 6.1 | 0.00 | 0.00 | 0.00 | 83 | 1013.5 |
| 20260508021543 | 74 | 263 | 2.6 | 7.0 | 0.00 | 0.00 | 0.00 | 83 | 1013.6 |
| 20260508021023 | 75 | 273 | 3.5 | 7.0 | 0.00 | 0.00 | 0.00 | 82 | 1013.5 |
| 20260508020516 | 75 | 281 | 4.3 | 7.0 | 0.00 | 0.00 | 0.00 | 82 | 1013.5 |
| 20260508020038 | 75 | 277 | 4.3 | 7.0 | 0.00 | 0.00 | 0.00 | 81 | 1013.5 |
| 20260508015521 | 75 | 260 | 2.6 | 7.0 | 0.00 | 0.00 | 0.00 | 80 | 1013.5 |
| 20260508015016 | 75 | 234 | 1.7 | 7.8 | 0.00 | 0.00 | 0.00 | 79 | 1013.5 |
| 20260508014548 | 76 | 259 | 2.6 | 7.8 | 0.00 | 0.00 | 0.00 | 78 | 1013.5 |
| 20260508014021 | 76 | 263 | 5.2 | 8.7 | 0.00 | 0.00 | 0.00 | 78 | 1013.5 |
| 20260508013520 | 76 | 259 | 5.2 | 8.7 | 0.00 | 0.00 | 0.00 | 77 | 1013.5 |
| 20260508013043 | 76 | 270 | 5.2 | 8.7 | 0.00 | 0.00 | 0.00 | 76 | 1013.5 |
| 20260508012522 | 77 | 264 | 4.3 | 8.7 | 0.00 | 0.00 | 0.00 | 76 | 1013.4 |
| 20260508012020 | 77 | 268 | 4.3 | 7.8 | 0.00 | 0.00 | 0.00 | 75 | 1013.4 |
| 20260508011541 | 77 | 259 | 4.3 | 8.7 | 0.00 | 0.00 | 0.00 | 74 | 1013.4 |
| 20260508011020 | 77 | 278 | 5.2 | 8.7 | 0.00 | 0.00 | 0.00 | 74 | 1013.3 |
| 20260508010520 | 78 | 273 | 5.2 | 8.7 | 0.00 | 0.00 | 0.00 | 73 | 1013.3 |
| 20260508010034 | 78 | 256 | 3.5 | 7.0 | 0.00 | 0.00 | 0.00 | 72 | 1013.2 |
| 20260508005525 | 78 | 284 | 4.3 | 7.0 | 0.00 | 0.00 | 0.00 | 71 | 1013.2 |
| 20260508005022 | 78 | 287 | 3.5 | 7.0 | 0.00 | 0.00 | 0.00 | 70 | 1013.1 |
| 20260508004542 | 78 | 268 | 3.5 | 7.0 | 0.00 | 0.00 | 0.00 | 70 | 1013.0 |
| 20260508004019 | 79 | 261 | 3.5 | 7.8 | 0.00 | 0.00 | 0.00 | 68 | 1013.1 |
| 20260508003518 | 79 | 270 | 4.3 | 7.8 | 0.00 | 0.00 | 0.00 | 68 | 1013.1 |
| 20260508003056 | 79 | 242 | 3.5 | 7.0 | 0.00 | 0.00 | 0.00 | 67 | 1013.1 |
| 20260508002520 | 79 | 285 | 2.6 | 7.0 | 0.00 | 0.00 | 0.00 | 66 | 1013.1 |
| 20260508002022 | 80 | 278 | 4.3 | 7.0 | 0.00 | 0.00 | 0.00 | 66 | 1013.1 |
| 20260508001539 | 80 | 256 | 2.6 | 6.1 | 0.00 | 0.00 | 0.00 | 65 | 1013.2 |
| 20260508001020 | 80 | 273 | 1.7 | 8.7 | 0.00 | 0.00 | 0.00 | 64 | 1013.1 |
| 20260508000517 | 81 | 273 | 2.6 | 8.7 | 0.00 | 0.00 | 0.00 | 63 | 1013.0 |
| 20260508000042 | 81 | 304 | 4.3 | 7.8 | 0.00 | 0.00 | 0.00 | 62 | 1013.0 |
| 20260507235520 | 81 | 257 | 3.5 | 9.6 | 0.00 | 0.00 | 0.00 | 61 | 1012.9 |
| 20260507235019 | 82 | 275 | 5.2 | 10.4 | 0.00 | 0.00 | 0.00 | 60 | 1012.9 |
| 20260507234541 | 82 | 266 | 5.2 | 10.4 | 0.00 | 0.00 | 0.00 | 59 | 1012.9 |
| 20260507234019 | 82 | 279 | 6.1 | 10.4 | 0.00 | 0.00 | 0.00 | 58 | 1012.9 |
| 20260507233520 | 83 | 261 | 7.0 | 10.4 | 0.00 | 0.00 | 0.00 | 57 | 1012.8 |
| 20260507233038 | 83 | 254 | 6.1 | 9.6 | 0.00 | 0.00 | 0.00 | 58 | 1012.8 |
| 20260507232523 | 83 | 259 | 5.2 | 10.4 | 0.00 | 0.00 | 0.00 | 57 | 1012.8 |
| 20260507232020 | 84 | 265 | 4.3 | 10.4 | 0.00 | 0.00 | 0.00 | 56 | 1012.7 |
| 20260507231540 | 84 | 274 | 6.1 | 11.3 | 0.00 | 0.00 | 0.00 | 54 | 1012.8 |
| 20260507231023 | 84 | 245 | 6.1 | 12.2 | 0.00 | 0.00 | 0.00 | 53 | 1012.7 |
| 20260507230519 | 85 | 286 | 7.8 | 12.2 | 0.00 | 0.00 | 0.00 | 53 | 1012.8 |
| 20260507230042 | 85 | 256 | 8.7 | 13.0 | 0.00 | 0.00 | 0.00 | 52 | 1012.8 |
| 20260507225523 | 86 | 261 | 9.6 | 13.0 | 0.00 | 0.00 | 0.00 | 50 | 1012.7 |
| 20260507225020 | 86 | 277 | 7.0 | 13.0 | 0.00 | 0.00 | 0.00 | 48 | 1012.7 |
| 20260507224552 | 86 | 298 | 7.8 | 13.0 | 0.00 | 0.00 | 0.00 | 47 | 1012.7 |
| 20260507224020 | 87 | 279 | 6.1 | 12.2 | 0.00 | 0.00 | 0.00 | 44 | 1012.6 |
| 20260507223520 | 87 | 262 | 6.1 | 12.2 | 0.00 | 0.00 | 0.00 | 43 | 1012.7 |
| 20260507223035 | 87 | 269 | 7.8 | 12.2 | 0.00 | 0.00 | 0.00 | 41 | 1012.7 |
| 20260507222520 | 88 | 268 | 5.2 | 11.3 | 0.00 | 0.00 | 0.00 | 39 | 1012.6 |
| 20260507222019 | 87 | 248 | 6.1 | 11.3 | 0.00 | 0.00 | 0.00 | 37 | 1012.7 |
| 20260507221532 | 87 | 275 | 7.0 | 12.2 | 0.00 | 0.00 | 0.00 | 37 | 1012.6 |
| 20260507221022 | 88 | 279 | 7.8 | 13.9 | 0.00 | 0.00 | 0.00 | 35 | 1012.6 |
| 20260507220522 | 89 | 273 | 8.7 | 13.9 | 0.00 | 0.00 | 0.00 | 34 | 1012.5 |
| 20260507220040 | 89 | 285 | 8.7 | 13.0 | 0.00 | 0.00 | 0.00 | 35 | 1012.5 |
| 20260507215523 | 89 | 261 | 7.8 | 14.8 | 0.00 | 0.00 | 0.00 | 34 | 1012.6 |
| 20260507215021 | 89 | 259 | 10.4 | 14.8 | 0.00 | 0.00 | 0.00 | 33 | 1012.6 |
| 20260507214537 | 89 | 296 | 7.0 | 14.8 | 0.00 | 0.00 | 0.00 | 33 | 1012.6 |
| 20260507214020 | 89 | 285 | 7.0 | 14.8 | 0.00 | 0.00 | 0.00 | 34 | 1012.7 |
| 20260507213520 | 90 | 280 | 9.6 | 14.8 | 0.00 | 0.00 | 0.00 | 34 | 1012.5 |
| 20260507213040 | 90 | 255 | 7.8 | 15.6 | 0.00 | 0.00 | 0.00 | 34 | 1012.6 |
| 20260507212520 | 91 | 268 | 3.5 | 15.6 | 0.00 | 0.00 | 0.00 | 32 | 1012.7 |
| 20260507212020 | 91 | 255 | 7.8 | 13.0 | 0.00 | 0.00 | 0.00 | 31 | 1012.6 |
| 20260507211543 | 91 | 263 | 8.7 | 15.6 | 0.00 | 0.00 | 0.00 | 30 | 1012.5 |
| 20260507211019 | 91 | 253 | 10.4 | 15.6 | 0.00 | 0.00 | 0.00 | 31 | 1012.6 |
| 20260507210521 | 91 | 262 | 10.4 | 15.6 | 0.00 | 0.00 | 0.00 | 31 | 1012.6 |
| 20260507210039 | 91 | 271 | 11.3 | 14.8 | 0.00 | 0.00 | 0.00 | 30 | 1012.6 |
| 20260507205520 | 91 | 284 | 9.6 | 16.5 | 0.00 | 0.00 | 0.00 | 29 | 1012.7 |
| 20260507205020 | 91 | 272 | 8.7 | 16.5 | 0.00 | 0.00 | 0.00 | 29 | 1012.6 |
| 20260507204543 | 92 | 284 | 10.4 | 16.5 | 0.00 | 0.00 | 0.00 | 29 | 1012.7 |
| 20260507204019 | 93 | 267 | 10.4 | 15.6 | 0.00 | 0.00 | 0.00 | 27 | 1012.7 |
| 20260507203520 | 92 | 272 | 7.8 | 13.9 | 0.00 | 0.00 | 0.00 | 30 | 1012.7 |
| 20260507203041 | 93 | 277 | 7.8 | 14.8 | 0.00 | 0.00 | 0.00 | 30 | 1012.7 |
| 20260507202519 | 92 | 260 | 9.6 | 14.8 | 0.00 | 0.00 | 0.00 | 33 | 1012.5 |
| 20260507202020 | 92 | 265 | 10.4 | 13.9 | 0.00 | 0.00 | 0.00 | 32 | 1012.6 |
| 20260507201537 | 92 | 295 | 8.7 | 13.9 | 0.00 | 0.00 | 0.00 | 32 | 1012.7 |
| 20260507201020 | 92 | 275 | 8.7 | 13.9 | 0.00 | 0.00 | 0.00 | 33 | 1012.7 |
| 20260507200521 | 92 | 271 | 7.8 | 19.1 | 0.00 | 0.00 | 0.00 | 33 | 1012.8 |
| 20260507200038 | 92 | 294 | 8.7 | 19.1 | 0.00 | 0.00 | 0.00 | 32 | 1012.9 |
| 20260507195520 | 93 | 274 | 10.4 | 16.5 | 0.00 | 0.00 | 0.00 | 34 | 1012.8 |
| 20260507195020 | 93 | 265 | 11.3 | 16.5 | 0.00 | 0.00 | 0.00 | 34 | 1012.9 |
| 20260507194539 | 93 | 290 | 7.8 | 16.5 | 0.00 | 0.00 | 0.00 | 35 | 1013.0 |
| 20260507194020 | 93 | 257 | 11.3 | 16.5 | 0.00 | 0.00 | 0.00 | 37 | 1013.0 |
| 20260507193520 | 93 | 314 | 11.3 | 15.6 | 0.00 | 0.00 | 0.00 | 38 | 1013.1 |
| 20260507193043 | 93 | 232 | 8.7 | 16.5 | 0.00 | 0.00 | 0.00 | 40 | 1013.0 |
| 20260507192519 | 93 | 288 | 10.4 | 16.5 | 0.00 | 0.00 | 0.00 | 41 | 1013.0 |
| 20260507192017 | 94 | 276 | 10.4 | 14.8 | 0.00 | 0.00 | 0.00 | 43 | 1013.1 |
| 20260507191539 | 93 | 249 | 9.6 | 14.8 | 0.00 | 0.00 | 0.00 | 46 | 1013.0 |
| 20260507191016 | 94 | 277 | 9.6 | 14.8 | 0.00 | 0.00 | 0.00 | 44 | 1013.1 |
| 20260507190518 | 94 | 308 | 7.8 | 14.8 | 0.00 | 0.00 | 0.00 | 43 | 1013.1 |
| 20260507190038 | 95 | 274 | 7.8 | 14.8 | 0.00 | 0.00 | 0.00 | 36 | 1013.2 |
| 20260507185517 | 95 | 252 | 2.6 | 12.2 | 0.00 | 0.00 | 0.00 | 31 | 1013.3 |
| 20260507185017 | 94 | 253 | 6.1 | 12.2 | 0.00 | 0.00 | 0.00 | 34 | 1013.4 |
| 20260507184537 | 95 | 274 | 3.5 | 11.3 | 0.00 | 0.00 | 0.00 | 32 | 1013.5 |
| 20260507184018 | 95 | 225 | 7.0 | 14.8 | 0.00 | 0.00 | 0.00 | 32 | 1013.6 |
| 20260507183517 | 95 | 259 | 8.7 | 14.8 | 0.00 | 0.00 | 0.00 | 31 | 1013.7 |
| 20260507183036 | 94 | 260 | 2.6 | 10.4 | 0.00 | 0.00 | 0.00 | 32 | 1013.7 |
| 20260507182517 | 93 | 235 | 1.7 | 13.0 | 0.00 | 0.00 | 0.00 | 30 | 1013.8 |
| 20260507182017 | 94 | 243 | 7.8 | 13.0 | 0.00 | 0.00 | 0.00 | 30 | 1014.0 |
| 20260507181535 | 94 | 290 | 7.0 | 13.0 | 0.00 | 0.00 | 0.00 | 30 | 1013.9 |
| 20260507181023 | 94 | 272 | 3.5 | 16.5 | 0.00 | 0.00 | 0.00 | 31 | 1014.1 |
| 20260507180520 | 94 | 266 | 3.5 | 16.5 | 0.00 | 0.00 | 0.00 | 30 | 1014.1 |
| 20260507180046 | 94 | 252 | 6.1 | 13.9 | 0.00 | 0.00 | 0.00 | 32 | 1014.1 |
| 20260507175520 | 95 | 256 | 1.7 | 6.1 | 0.00 | 0.00 | 0.00 | 33 | 1014.2 |
| 20260507175018 | 95 | 309 | 1.7 | 9.6 | 0.00 | 0.00 | 0.00 | 33 | 1014.4 |
| 20260507174540 | 94 | 270 | 1.7 | 9.6 | 0.00 | 0.00 | 0.00 | 33 | 1014.4 |
| 20260507174017 | 94 | 157 | 1.7 | 13.9 | 0.00 | 0.00 | 0.00 | 33 | 1014.4 |
| 20260507173517 | 93 | 258 | 0.9 | 13.9 | 0.00 | 0.00 | 0.00 | 34 | 1014.5 |
| 20260507173038 | 93 | 238 | 5.2 | 13.9 | 0.00 | 0.00 | 0.00 | 34 | 1014.5 |
| 20260507172518 | 94 | 271 | 5.2 | 13.0 | 0.00 | 0.00 | 0.00 | 36 | 1014.5 |
| 20260507172017 | 93 | 215 | 3.5 | 13.0 | 0.00 | 0.00 | 0.00 | 35 | 1014.5 |
| 20260507171537 | 93 | 258 | 1.7 | 13.9 | 0.00 | 0.00 | 0.00 | 34 | 1014.4 |
| 20260507171017 | 92 | 248 | 4.3 | 13.9 | 0.00 | 0.00 | 0.00 | 34 | 1014.5 |
| 20260507170517 | 92 | 277 | 4.3 | 12.2 | 0.00 | 0.00 | 0.00 | 35 | 1014.5 |
| 20260507170037 | 91 | 213 | 5.2 | 12.2 | 0.00 | 0.00 | 0.00 | 35 | 1014.5 |
| 20260507165517 | 92 | 241 | 4.3 | 12.2 | 0.00 | 0.00 | 0.00 | 32 | 1014.5 |
| 20260507165017 | 93 | 244 | 1.7 | 9.6 | 0.00 | 0.00 | 0.00 | 32 | 1014.4 |
| 20260507164535 | 93 | 198 | 2.6 | 10.4 | 0.00 | 0.00 | 0.00 | 32 | 1014.4 |
| 20260507164019 | 92 | 249 | 5.2 | 11.3 | 0.00 | 0.00 | 0.00 | 34 | 1014.5 |
| 20260507163520 | 91 | 136 | 3.5 | 11.3 | 0.00 | 0.00 | 0.00 | 35 | 1014.6 |
| 20260507163038 | 92 | 240 | 1.7 | 8.7 | 0.00 | 0.00 | 0.00 | 35 | 1014.6 |
| 20260507162517 | 92 | 200 | 1.7 | 13.9 | 0.00 | 0.00 | 0.00 | 35 | 1014.7 |
| 20260507162021 | 90 | 236 | 2.6 | 13.9 | 0.00 | 0.00 | 0.00 | 34 | 1014.8 |
| 20260507161541 | 90 | 253 | 8.7 | 13.9 | 0.00 | 0.00 | 0.00 | 36 | 1014.7 |
| 20260507161016 | 91 | 225 | 1.7 | 10.4 | 0.00 | 0.00 | 0.00 | 34 | 1014.9 |
| 20260507160521 | 92 | 194 | 2.6 | 12.2 | 0.00 | 0.00 | 0.00 | 38 | 1014.9 |
| 20260507160039 | 91 | 213 | 2.6 | 12.2 | 0.00 | 0.00 | 0.00 | 38 | 1014.9 |
| 20260507155517 | 91 | 118 | 1.7 | 14.8 | 0.00 | 0.00 | 0.00 | 38 | 1014.9 |
| 20260507155107 | 91 | 269 | 1.7 | 14.8 | 0.00 | 0.00 | 0.00 | 35 | 1015.0 |
| 20260507154538 | 91 | 134 | 1.7 | 7.0 | 0.00 | 0.00 | 0.00 | 36 | 1015.0 |
| 20260507154017 | 90 | 234 | 1.7 | 11.3 | 0.00 | 0.00 | 0.00 | 35 | 1015.1 |
| 20260507153518 | 89 | 227 | 5.2 | 11.3 | 0.00 | 0.00 | 0.00 | 36 | 1015.0 |
| 20260507153036 | 90 | 201 | 0.9 | 9.6 | 0.00 | 0.00 | 0.00 | 39 | 1015.0 |
| 20260507152519 | 89 | 225 | 2.6 | 9.6 | 0.00 | 0.00 | 0.00 | 41 | 1015.0 |
| 20260507152020 | 89 | 262 | 1.7 | 7.0 | 0.00 | 0.00 | 0.00 | 45 | 1015.1 |
| 20260507151535 | 88 | 266 | 0.9 | 4.3 | 0.00 | 0.00 | 0.00 | 45 | 1015.0 |
| 20260507151020 | 88 | 215 | 0.9 | 7.0 | 0.00 | 0.00 | 0.00 | 45 | 1015.1 |
| 20260507150518 | 88 | 206 | 1.7 | 7.0 | 0.00 | 0.00 | 0.00 | 47 | 1015.1 |
| 20260507150038 | 88 | 200 | 1.7 | 6.1 | 0.00 | 0.00 | 0.00 | 46 | 1015.1 |
| 20260507145516 | 87 | 182 | 1.7 | 7.0 | 0.00 | 0.00 | 0.00 | 47 | 1015.1 |
| 20260507145019 | 88 | 122 | 1.7 | 7.0 | 0.00 | 0.00 | 0.00 | 48 | 1015.2 |
| 20260507144538 | 87 | 168 | 1.7 | 6.1 | 0.00 | 0.00 | 0.00 | 52 | 1015.1 |
| 20260507144017 | 86 | 159 | 0.9 | 7.0 | 0.00 | 0.00 | 0.00 | 56 | 1015.2 |
| 20260507143517 | 85 | 192 | 3.5 | 7.0 | 0.00 | 0.00 | 0.00 | 57 | 1015.1 |